Christchurch Automated, New Zealand

11:08 PM NZDT on February 06, 2016 (GMT +1300)
Christchurch International

Weather History for NZCH - June, 2013

Change the Weather History Date:

Saturday, June 15, 2013

  Actual Average Record
Temperature  
Mean Temperature 42 °F -  
Max Temperature 46 °F 51 °F 66 °F (2011)
Min Temperature 37 °F 33 °F 33 °F (2005)
Degree Days  
Heating Degree Days 24    
Moisture  
Dew Point 42 °F    
Average Humidity 94    
Maximum Humidity 100    
Minimum Humidity 87    
Precipitation  
Precipitation 0.00 in - - ()
Sea Level Pressure  
Sea Level Pressure 30.04 in    
Wind  
Wind Speed 5 mph ()    
Max Wind Speed 9 mph    
Max Gust Speed -    
Visibility 6.1 miles    
Events Rain    
Averages and records for this station are not official NWS values.
T = Trace of Precipitation, MM = Missing Value Source: Averaged Metar Reports

Daily Weather History Graph

Daily Weather History Graph

Search for Another Location

Airport or City:

Trip Planner

Search our weather history database for the weather conditions in past years. The results will help you decide how hot, cold, wet, or windy it might be!

Date:

Astronomy

Jun. 15, 2013 Rise Set
Actual Time 8:01 AM NZST 4:59 PM NZST
Civil Twilight 7:28 AM NZST 5:31 PM NZST
Nautical Twilight 6:52 AM NZST 6:08 PM NZST
Astronomical Twilight 6:17 AM NZST 6:42 PM NZST
Moon 11:33 AM NZST (6/15) 11:18 PM NZST (6/15)
Length of Visible Light 10h 03m
Length of Day
8h 58m
Waxing Crescent, 33% of the Moon is Illuminated
Jun 15
Waxing Crescent
Jun 17
First Quarter
Jun 23
Full
Jun 30
Last Quarter
Jul 8
New

Hourly Weather History & Observations

Time (NZST) Temp. Windchill Dew Point Humidity Pressure Visibility Wind Dir Wind Speed Gust Speed Precip Events Conditions
12:00 AM 46.4 °F 41.9 °F 44.6 °F 93% 30.12 in 6.2 mi NE 9.2 mph - N/A   Mostly Cloudy
1:00 AM 44.6 °F 40.7 °F 42.8 °F 93% 30.09 in 6.2 mi NE 6.9 mph - N/A   Mostly Cloudy
2:00 AM 44.6 °F 40.7 °F 42.8 °F 93% 30.09 in 6.2 mi NE 6.9 mph - N/A   Mostly Cloudy
3:00 AM 42.8 °F 38.0 °F 41.0 °F 93% 30.09 in 6.2 mi NE 8.1 mph - N/A   Mostly Cloudy
4:00 AM 41.0 °F 35.8 °F 39.2 °F 93% 30.09 in 6.2 mi NE 8.1 mph - N/A   Mostly Cloudy
5:00 AM 39.2 °F 35.9 °F 39.2 °F 100% 30.09 in 6.2 mi North 4.6 mph - N/A   Scattered Clouds
6:00 AM 37.4 °F 32.1 °F 37.4 °F 100% 30.06 in 6.2 mi NE 6.9 mph - N/A   Scattered Clouds
7:00 AM 37.4 °F 32.8 °F 37.4 °F 100% 30.06 in 6.2 mi NE 5.8 mph - N/A   Partly Cloudy
8:00 AM 39.2 °F 33.6 °F 37.4 °F 93% 30.06 in 6.2 mi NE 8.1 mph - N/A   Partly Cloudy
9:00 AM 41.0 °F 37.1 °F 41.0 °F 100% 30.06 in 6.2 mi NNE 5.8 mph - N/A   Mostly Cloudy
10:00 AM 42.8 °F 41.1 °F 41.0 °F 93% 30.06 in 6.2 mi NE 3.5 mph - N/A   Scattered Clouds
11:00 AM 44.6 °F 42.2 °F 41.0 °F 87% 30.09 in 6.2 mi North 4.6 mph - N/A   Scattered Clouds
12:00 PM 42.8 °F - 41.0 °F 93% 30.06 in 6.2 mi North 2.3 mph - N/A   Partly Cloudy
1:00 PM 46.4 °F 45.2 °F 42.8 °F 87% 30.04 in 6.2 mi NW 3.5 mph - N/A   Scattered Clouds
2:00 PM 46.4 °F - 42.8 °F 87% 30.01 in 6.2 mi Calm Calm - N/A Rain Light Rain Showers
3:00 PM 46.4 °F - 42.8 °F 87% 30.01 in 6.2 mi West 2.3 mph - N/A Rain Light Rain Showers
4:00 PM 46.4 °F - 44.6 °F 93% 30.01 in 6.2 mi SSW 2.3 mph - N/A Rain Light Rain Showers
5:00 PM 46.4 °F 45.2 °F 44.6 °F 93% 30.01 in 6.2 mi NW 3.5 mph - N/A Rain Light Rain Showers
6:00 PM 46.4 °F - 44.6 °F 93% 29.98 in 6.2 mi WSW 2.3 mph - N/A Rain Rain
7:00 PM 46.4 °F 45.2 °F 44.6 °F 93% 29.98 in 6.2 mi West 3.5 mph - N/A Rain Rain
8:00 PM 44.6 °F - 44.6 °F 100% 29.98 in 6.2 mi WSW 2.3 mph - N/A Rain Light Rain
9:00 PM 44.6 °F 43.1 °F 44.6 °F 100% 29.98 in 5.6 mi SW 3.5 mph - N/A Rain Light Rain
10:00 PM 44.6 °F 42.2 °F 44.6 °F 100% 29.98 in 5.6 mi SW 4.6 mph - N/A Rain Light Rain
11:00 PM 44.6 °F 40.7 °F 44.6 °F 100% 29.98 in 6.2 mi SW 6.9 mph - N/A Rain Rain